MDT,Max TemperatureF,Mean TemperatureF,Min TemperatureF,Max Dew PointF,MeanDew PointF,Min DewpointF,Max Humidity, Mean Humidity, Min Humidity, Max Sea Level PressureIn, Mean Sea Level PressureIn, Min Sea Level PressureIn, Max VisibilityMiles, Mean VisibilityMiles, Min VisibilityMiles, Max Wind SpeedMPH, Mean Wind SpeedMPH, Max Gust SpeedMPH,PrecipitationIn, CloudCover, Events, WindDirDegrees
2013-5-1,40,35,29,36,30,27,96,91,85,30.66,30.35,30.00,10,4,0,28,17,36,0.25,8,Fog-Rain-Snow-Thunderstorm,13
2013-5-2,51,40,29,31,25,19,85,57,28,30.76,30.64,30.47,10,10,10,20,9,25,0.00,3,,316
2013-5-3,60,43,26,27,23,19,81,51,21,30.46,30.25,30.12,10,10,10,18,7,25,0.00,0,,354
2013-5-4,61,44,27,22,17,9,69,41,13,30.27,30.20,30.15,10,10,10,24,12,31,0.00,0,,10
2013-5-5,65,46,27,28,22,19,75,47,18,30.29,30.21,30.13,10,10,10,14,5,25,0.00,0,,339
2013-5-6,74,55,36,38,31,23,82,51,20,30.13,30.04,29.94,10,10,10,22,10,30,0.00,0,,146
2013-5-7,73,60,46,51,46,37,93,69,44,29.97,29.91,29.83,10,10,7,22,12,29,0.00,4,,132
2013-5-8,74,61,47,53,48,44,100,68,35,29.99,29.94,29.87,10,7,0,22,8,28,0.46,4,Fog-Rain-Thunderstorm,360
2013-5-9,66,56,45,48,45,41,86,64,42,30.16,30.07,29.97,10,10,10,22,10,26,T,3,,9
2013-5-10,75,59,42,49,43,37,92,61,29,30.19,30.13,30.06,10,9,2,18,6,24,0.12,3,Rain-Thunderstorm,280
2013-5-11,68,56,44,43,32,24,80,51,22,30.39,30.28,30.19,10,10,5,18,8,23,0.00,1,,11
2013-5-12,81,61,41,44,40,33,93,56,18,30.19,30.07,30.00,10,10,10,20,7,25,0.00,0,,82
2013-5-13,94,72,49,47,41,35,80,47,14,30.01,29.93,29.82,10,8,1,14,6,20,0.00,0,,210
2013-5-14,98,76,54,51,40,30,61,36,10,29.85,29.76,29.66,10,10,10,22,9,29,0.00,1,Thunderstorm,289
2013-5-15,84,71,58,47,41,34,49,37,24,29.86,29.78,29.73,10,10,10,22,12,29,0.00,0,,85
2013-5-16,82,69,56,57,50,41,93,64,35,29.84,29.77,29.71,10,9,2,25,7,36,0.22,3,Rain-Thunderstorm,163
2013-5-17,88,72,56,63,57,51,93,61,29,29.86,29.76,29.67,10,10,10,30,15,38,0.00,1,,179
2013-5-18,84,70,56,64,58,51,87,67,47,29.80,29.70,29.54,10,8,2,36,11,47,0.62,6,Rain-Thunderstorm,112
2013-5-19,61,57,53,54,51,49,93,83,72,29.81,29.72,29.58,10,7,2,44,12,53,1.34,7,Rain-Thunderstorm,312
2013-5-20,63,56,49,52,46,42,93,72,51,29.85,29.77,29.73,10,10,10,37,20,48,0.03,6,Rain,298
2013-5-21,64,56,47,47,43,40,80,62,43,29.91,29.86,29.81,10,10,10,36,19,47,T,5,Rain,332
2013-5-22,70,57,43,47,44,41,96,68,40,30.08,29.95,29.90,10,10,10,21,11,26,0.00,1,,353
2013-5-23,69,59,48,49,46,43,86,67,48,30.19,30.12,30.06,10,10,10,30,14,36,0.00,6,,106
2013-5-24,82,68,54,63,55,50,100,73,45,30.10,29.97,29.78,10,9,2,35,20,45,T,5,Thunderstorm,143
2013-5-25,91,76,60,63,55,46,97,60,23,29.99,29.84,29.71,10,9,4,30,15,38,0.00,2,Thunderstorm,138
2013-5-26,89,75,60,66,57,50,97,63,28,29.75,29.71,29.67,10,10,4,25,9,31,0.00,0,,106
2013-5-27,77,66,55,66,58,34,93,57,20,29.82,29.70,29.57,10,9,2,33,12,41,T,4,Rain-Thunderstorm,79
2013-5-28,82,66,49,64,54,46,100,65,30,29.82,29.70,29.51,10,8,0,31,12,40,0.00,4,Fog,101
2013-5-29,79,65,51,58,54,48,93,72,50,29.67,29.52,29.35,10,10,2,32,11,41,0.28,4,Rain-Thunderstorm,4
2013-5-30,77,64,50,49,42,32,89,55,20,29.71,29.58,29.53,10,10,4,38,13,51,0.01,1,,266
2013-5-31,75,61,46,44,38,29,86,53,20,29.88,29.76,29.70,10,10,6,33,19,47,0.00,0,,298